Location: *
(43.0833°N, 13.0500°E)
Time: 20:29:01
(UTC+00:00)

CSL-04 Rocket - Pass Details

Date: 15 November 2019
Orbit: 806 x 860 km, 99.0° (Epoch: 14 December)

Event Time Altitude Azimuth Distance (km) Brightness Sun altitude
Rises 16:44:43 0° 138° (SE) 3,361 6.5 -11.2°
Reaches altitude 10° 16:47:16 10° 129° (SE) 2,423 5.7 -11.6°
Maximum altitude 16:52:00 33° 66° (ENE) 1,339 4.2 -12.5°
Drops below altitude 10° 16:56:44 10° 4° (N) 2,410 5.9 -13.3°
Sets 16:59:15 0° 355° (N) 3,341 6.7 -13.8°
